Temp
19 20 20 20 21 21 22 22 23 23 24 24 25 25 25 25 25 25 26 27 28 29 29 30 29 30 31 32 33 31 31 34 34 34 33 34 33 32 31 30 30 29 26 25 24
19 19 20 20 21 21 22 22 23 23 24 24 24 24 24 25 25 25 28 28 28 29 29 29 31 32 33 34 36 36 34 35 36 36 27 25 32 32 31 31 30 28 26 24 24
19 19 20 20 20 21 22 22 23 23 23 24 24 24 24 24 24 27 28 28 28 29 29 31 32 33 34 35 36 37 36 36 36 35 31 28 29 30 21 30 29 27 26 24 24
19 19 20 20 20 21 22 22 22 23 23 23 24 24 23 24 28 29 29 29 29 29 28 30 32 33 35 36 37 36 36 36 36 32 33 34 31 25 23 25 28 27 26 25 24
19 19 20 20 20 21 22 22 22 23 23 23 23 23 23 23 26 28 28 29 28 29 28 31 33 34 35 37 36 36 36 35 35 34 34 32 31 29 26 27 28 27 26 25 25
19 19 20 20 20 21 22 22 23 22 22 23 23 23 22 25 29 28 28 28 28 29 30 31 33 34 36 37 36 36 36 35 35 34 34 32 31 30 29 28 27 26 26 26 26
18 19 19 20 20 21 22 22 23 23 22 22 23 22 20 26 29 29 28 29 28 29 31 32 33 35 35 37 36 36 35 36 35 34 33 33 31 29 28 28 27 27 27 26 26
18 19 19 20 20 21 22 22 23 22 22 22 22 21 22 28 28 28 29 29 29 30 32 33 33 34 35 36 36 35 35 34 35 32 30 32 29 29 28 28 28 27 27 27 26
18 18 19 20 20 21 22 22 23 22 22 22 22 22 26 28 28 28 29 30 30 31 32 33 33 33 35 36 35 35 34 33 33 32 32 32 30 30 30 29 29 29 28 27 26
17 18 19 20 20 21 22 23 23 23 22 21 22 21 25 29 29 29 30 30 31 31 32 32 32 34 35 35 33 34 33 34 33 34 32 32 31 31 31 30 29 29 28 27 27
17 18 19 19 20 21 22 23 21 21 22 25 28 29 31 30 30 30 30 31 31 32 32 32 32 33 35 35 36 36 36 33 34 32 32 32 31 32 32 31 30 29 28 28 28
17 17 18 19 20 21 22 21 25 26 26 27 28 29 30 31 30 30 30 31 32 32 33 33 32 35 36 36 36 36 36 35 36 36 35 31 30 32 33 32 31 30 29 29 28
16 17 18 19 20 22 22 22 25 25 26 27 28 30 30 31 31 31 31 31 32 32 33 33 34 36 36 36 35 36 35 35 35 35 35 34 31 27 31 33 32 31 30 29 28
16 17 18 19 21 22 23 25 24 25 26 29 31 30 30 30 31 31 31 32 33 32 33 34 35 35 35 35 35 34 36 36 36 34 33 34 31 27 30 32 32 32 30 30 29
16 16 18 16 19 22 23 23 24 24 24 34 33 32 31 31 31 32 31 32 33 33 34 33 35 35 34 35 36 34 36 35 36 35 34 34 32 30 32 30 32 32 31 31 29
16 16 17 17 18 22 22 21 23 25 26 33 33 33 32 31 32 32 32 32 33 34 34 35 36 36 36 36 36 36 35 36 35 34 32 34 33 30 28 30 30 29 31 31 30
16 17 17 17 20 21 20 21 24 24 31 32 32 33 32 32 32 33 32 31 32 31 32 34 35 36 36 35 36 36 34 32 31 31 31 35 33 32 33 33 31 27 26 31 31
17 17 18 19 21 21 21 23 23 27 29 33 34 33 32 33 32 33 32 31 33 33 33 32 32 35 36 35 35 34 34 32 30 31 33 34 32 33 35 35 31 30 31 32 31
17 18 17 19 20 19 21 23 25 28 31 32 34 33 32 33 33 33 32 32 33 34 33 33 33 36 36 36 36 34 33 35 34 35 33 34 34 35 35 34 34 34 34 33 31
16 17 20 21 20 18 23 22 27 30 31 33 31 33 32 33 33 33 32 33 33 34 35 35 33 36 36 36 36 35 35 33 33 31 31 33 33 33 33 33 34 34 33 33 32
15 18 23 21 19 21 23 25 27 29 31 31 31 31 33 33 34 33 33 34 34 35 35 36 35 35 36 34 34 34 34 34 34 33 32 31 30 33 33 33 34 34 33 33 32
13 20 22 21 22 24 25 26 28 30 30 32 32 31 31 33 34 34 33 34 35 35 34 36 35 33 34 36 36 36 34 34 32 31 32 32 32 35 34 34 34 33 33 32 32
12 19 22 22 23 25 26 27 28 30 30 31 31 32 32 32 32 34 35 36 36 35 35 35 34 32 33 35 36 34 35 34 34 34 31 31 31 34 34 34 33 33 32 32 31
11 21 23 23 23 25 27 27 28 29 30 31 31 32 32 32 33 33 35 36 36 36 34 35 34 32 32 33 35 33 34 34 34 32 32 33 32 33 33 33 32 32 32 31 30
12 19 21 23 25 25 26 27 28 28 30 30 29 30 31 30 32 32 34 35 36 33 35 35 32 33 34 34 35 34 34 34 33 33 32 33 32 31 30 32 31 31 31 31 31
13 14 16 18 20 24 23 26 26 28 29 29 29 30 31 30 31 29 30 33 34 34 34 34 32 32 32 34 34 34 34 34 34 34 34 34 33 31 32 31 31 31 31 30 30
11 10 13 18 22 24 25 26 26 28 29 29 29 28 29 27 28 29 30 31 32 33 33 32 32 31 30 32 33 32 34 34 35 34 34 32 33 32 31 31 31 30 30 29 29
Height
1531 1528 1525 1522 1519 1516 1513 1511 1507 1505 1502 1499 1497 1494 1492 1490 1490 1488 1486 1490 1491 1492 1491 1489 1490 1487 1486 1480 1473 1472 1486 1474 1476 1472 1482 1483 1490 1495 1501 1506 1509 1512 1517 1527 1534
1531 1528 1524 1522 1519 1515 1512 1509 1506 1503 1500 1497 1494 1491 1490 1488 1486 1482 1482 1485 1487 1489 1489 1487 1487 1486 1481 1471 1467 1465 1480 1470 1466 1464 1487 1491 1489 1498 1503 1507 1510 1516 1524 1530 1534
1529 1526 1523 1520 1518 1514 1511 1508 1504 1500 1496 1493 1490 1488 1487 1486 1484 1473 1477 1480 1484 1487 1487 1487 1485 1482 1474 1466 1464 1461 1465 1465 1466 1470 1478 1488 1497 1499 1518 1507 1513 1518 1525 1531 1536
1527 1525 1522 1518 1516 1513 1509 1506 1502 1498 1494 1491 1487 1486 1486 1486 1482 1471 1472 1478 1482 1485 1487 1487 1484 1478 1471 1465 1464 1466 1463 1468 1472 1478 1481 1485 1495 1512 1516 1515 1516 1522 1527 1532 1536
1525 1522 1520 1516 1513 1510 1507 1504 1500 1497 1493 1490 1486 1484 1484 1484 1475 1474 1475 1476 1480 1483 1485 1486 1483 1475 1468 1464 1466 1465 1468 1473 1477 1480 1485 1492 1500 1510 1516 1515 1519 1524 1529 1533 1537
1523 1520 1517 1514 1511 1508 1505 1501 1498 1495 1491 1488 1485 1483 1483 1482 1472 1473 1473 1475 1478 1481 1484 1484 1480 1472 1466 1463 1467 1466 1470 1475 1477 1483 1488 1494 1502 1509 1516 1519 1522 1527 1530 1533 1537
1521 1518 1514 1511 1508 1505 1502 1498 1495 1492 1489 1486 1483 1481 1482 1472 1472 1472 1474 1473 1478 1481 1482 1481 1477 1474 1469 1466 1468 1471 1475 1474 1480 1485 1491 1494 1506 1513 1518 1523 1525 1527 1529 1532 1537
1517 1515 1512 1508 1506 1502 1499 1495 1492 1489 1487 1485 1482 1481 1476 1468 1470 1472 1473 1476 1478 1480 1480 1479 1477 1474 1468 1465 1470 1472 1473 1485 1478 1486 1497 1498 1518 1515 1517 1520 1524 1525 1527 1532 1536
1514 1512 1509 1506 1502 1499 1496 1492 1488 1485 1484 1483 1482 1481 1471 1465 1468 1469 1471 1473 1476 1478 1478 1478 1478 1476 1468 1468 1474 1472 1482 1485 1487 1485 1491 1500 1510 1509 1513 1517 1521 1522 1526 1530 1535
1511 1508 1505 1503 1500 1496 1493 1489 1483 1480 1480 1481 1481 1485 1464 1461 1462 1466 1469 1472 1474 1476 1477 1478 1478 1474 1466 1465 1489 1479 1483 1476 1482 1481 1488 1496 1501 1505 1507 1512 1518 1521 1525 1529 1532
1508 1505 1502 1499 1497 1494 1490 1487 1483 1481 1478 1475 1466 1460 1453 1456 1460 1463 1466 1470 1473 1474 1474 1474 1477 1476 1463 1461 1456 1457 1463 1483 1473 1478 1483 1492 1495 1497 1500 1506 1514 1518 1523 1526 1529
1505 1501 1498 1496 1493 1491 1488 1486 1479 1481 1471 1467 1462 1459 1454 1454 1459 1462 1465 1467 1467 1468 1469 1471 1472 1459 1454 1456 1456 1454 1461 1467 1465 1465 1472 1494 1500 1494 1496 1499 1506 1513 1519 1522 1526
1501 1498 1495 1492 1489 1487 1485 1482 1481 1479 1471 1454 1452 1450 1452 1452 1454 1457 1461 1462 1463 1464 1464 1466 1462 1455 1452 1454 1460 1457 1464 1463 1467 1465 1470 1479 1496 1506 1501 1496 1499 1506 1513 1517 1522
1498 1494 1492 1488 1489 1484 1480 1481 1480 1478 1469 1440 1434 1438 1446 1450 1449 1452 1458 1460 1458 1460 1457 1458 1452 1453 1453 1455 1457 1471 1457 1458 1460 1471 1491 1473 1507 1501 1497 1492 1493 1498 1505 1511 1518
1495 1492 1490 1489 1484 1482 1481 1479 1479 1477 1484 1405 1417 1428 1437 1443 1446 1445 1452 1455 1452 1452 1454 1457 1449 1450 1456 1453 1451 1463 1454 1459 1458 1468 1475 1476 1494 1488 1484 1491 1488 1492 1497 1504 1512
1491 1489 1484 1487 1480 1478 1478 1479 1479 1478 1468 1411 1413 1422 1432 1437 1439 1441 1448 1452 1450 1448 1447 1444 1443 1442 1446 1446 1449 1452 1456 1453 1459 1469 1490 1473 1480 1493 1498 1489 1486 1495 1496 1501 1505
1485 1484 1480 1479 1476 1480 1477 1479 1477 1474 1428 1418 1416 1415 1424 1430 1435 1432 1441 1447 1449 1459 1456 1445 1439 1434 1440 1448 1445 1449 1463 1489 1499 1495 1494 1457 1471 1473 1466 1470 1477 1487 1492 1492 1498
1478 1477 1474 1471 1472 1474 1477 1476 1475 1445 1434 1402 1401 1411 1422 1420 1428 1426 1436 1445 1440 1441 1446 1455 1460 1436 1436 1440 1446 1451 1459 1479 1506 1491 1476 1452 1481 1470 1453 1457 1469 1478 1479 1483 1490
1472 1469 1467 1464 1466 1470 1475 1470 1453 1439 1417 1412 1401 1410 1416 1413 1420 1420 1428 1436 1434 1431 1443 1445 1447 1425 1431 1433 1435 1453 1464 1445 1460 1452 1470 1462 1456 1449 1452 1458 1464 1468 1473 1477 1483
1468 1463 1456 1460 1463 1466 1466 1461 1438 1426 1414 1408 1415 1400 1413 1411 1418 1416 1424 1424 1427 1427 1421 1426 1447 1424 1428 1434 1434 1441 1444 1469 1459 1489 1493 1465 1463 1462 1456 1460 1462 1467 1471 1475 1479
1470 1465 1450 1455 1459 1462 1453 1446 1435 1422 1418 1414 1413 1407 1399 1403 1405 1407 1416 1417 1418 1419 1416 1413 1421 1427 1424 1435 1443 1442 1450 1447 1448 1458 1479 1483 1482 1449 1455 1456 1460 1464 1469 1475 1478
1471 1462 1452 1455 1456 1447 1441 1437 1429 1418 1415 1410 1408 1406 1407 1399 1398 1401 1406 1407 1408 1411 1416 1409 1417 1433 1425 1417 1423 1428 1441 1446 1468 1473 1462 1466 1471 1440 1448 1454 1458 1462 1468 1472 1477
1472 1458 1451 1452 1447 1439 1433 1431 1425 1416 1412 1408 1410 1406 1403 1401 1404 1391 1393 1390 1397 1402 1406 1410 1421 1441 1435 1423 1420 1434 1434 1439 1444 1447 1465 1474 1469 1445 1448 1452 1456 1461 1465 1469 1472
1474 1450 1442 1442 1441 1433 1425 1422 1420 1413 1409 1407 1404 1402 1401 1400 1391 1393 1387 1386 1389 1394 1400 1403 1413 1429 1441 1432 1422 1437 1435 1434 1437 1453 1455 1454 1456 1451 1449 1451 1457 1462 1464 1467 1470
1472 1452 1444 1433 1429 1428 1424 1418 1413 1411 1406 1408 1409 1405 1401 1405 1397 1393 1385 1384 1384 1390 1393 1402 1422 1419 1419 1417 1417 1421 1428 1431 1440 1439 1452 1444 1456 1453 1461 1460 1459 1459 1463 1465 1465
1474 1468 1453 1447 1438 1425 1418 1416 1414 1404 1404 1406 1410 1404 1400 1402 1397 1403 1397 1384 1381 1388 1395 1400 1421 1422 1429 1417 1418 1424 1416 1418 1424 1429 1432 1433 1438 1430 1443 1452 1456 1457 1460 1462 1461
1476 1472 1467 1446 1436 1426 1417 1413 1411 1405 1397 1402 1401 1407 1403 1408 1408 1404 1401 1395 1388 1384 1396 1406 1415 1429 1440 1424 1424 1431 1416 1412 1412 1414 1423 1438 1431 1435 1443 1448 1451 1455 1459 1461 1459
Wind_Speed
20 21 22 21 21 21 21 22 23 22 20 20 20 20 20 19 18 19 20 13 11 14 12 11 13 14 14 20 25 46 7 5 9 12 19 24 17 21 18 18 14 12 27 28 25
21 21 22 22 21 22 22 22 24 24 21 21 21 20 18 18 19 24 21 16 16 15 12 14 14 11 16 22 9 6 3 11 10 12 22 33 3 19 14 14 14 21 27 27 24
21 21 22 23 22 22 22 23 24 24 25 22 19 17 15 14 16 25 17 18 19 16 14 13 13 17 19 18 5 4 11 6 17 14 33 37 29 22 32 12 19 29 30 27 24
21 22 22 23 23 22 22 24 24 23 23 18 14 13 11 10 5 4 17 14 17 14 14 13 14 19 16 8 1 6 14 14 9 24 16 18 25 23 34 20 20 25 26 25 22
21 21 22 23 24 23 22 23 24 23 21 17 15 11 9 10 24 13 6 18 19 17 17 15 15 20 17 7 4 9 14 9 14 17 20 23 19 18 24 16 23 24 24 22 19
22 22 22 23 24 23 23 23 23 23 21 16 15 10 10 16 10 8 8 19 19 19 18 17 18 20 17 5 8 13 12 11 17 13 12 15 16 19 17 21 23 22 20 18 17
23 23 23 23 23 24 22 24 23 22 22 14 12 7 11 20 9 8 11 21 20 19 19 17 20 15 15 8 10 10 10 9 12 19 12 21 15 14 18 19 20 19 18 16 14
24 23 24 24 23 23 23 23 24 20 21 11 6 4 10 11 7 13 15 19 19 19 19 15 14 16 20 5 6 13 14 12 17 20 4 8 11 13 16 17 17 17 17 16 15
25 23 23 24 23 22 23 23 26 22 16 9 4 6 19 10 19 14 20 23 21 20 18 11 14 18 18 12 11 13 13 14 15 23 10 4 11 17 19 18 16 18 16 16 13
24 25 23 23 23 22 22 22 28 18 9 10 10 10 20 16 16 18 22 23 23 21 18 12 12 15 18 12 15 17 17 20 15 14 14 14 10 15 20 19 17 17 16 17 17
24 25 24 23 21 21 22 20 11 1 6 14 9 14 4 14 17 20 24 26 23 23 19 20 15 17 19 18 17 15 13 17 16 18 25 13 16 18 22 21 19 21 19 19 18
25 25 25 23 20 19 20 13 17 16 19 21 27 25 17 18 16 22 26 25 22 20 21 16 20 21 18 20 20 19 11 12 13 16 11 16 20 18 18 20 23 23 21 20 21
25 25 25 23 21 12 12 16 18 16 17 32 27 30 22 15 19 25 27 28 21 23 22 20 22 22 18 16 16 16 11 10 15 12 4 12 18 13 15 18 22 23 23 23 24
25 24 24 25 12 8 15 7 7 13 10 19 24 30 28 21 19 26 29 27 17 23 22 23 23 21 18 17 17 18 12 18 15 14 11 15 13 18 23 18 15 23 25 26 26
25 24 22 21 21 17 16 13 12 11 7 9 25 20 28 26 22 24 30 31 20 19 18 22 21 23 21 19 16 12 16 18 13 11 14 14 9 15 16 16 16 24 27 27 29
25 23 24 14 21 10 12 17 12 7 9 5 16 16 24 24 26 27 29 32 28 19 21 22 21 19 20 20 16 18 10 17 9 11 14 17 12 6 9 17 17 12 25 29 29
26 22 23 23 20 5 8 9 7 10 16 13 20 21 22 17 24 23 25 25 22 17 21 23 25 15 14 18 20 18 11 8 9 11 13 15 15 10 19 22 21 23 49 31 30
28 23 22 25 17 11 7 8 15 15 24 21 17 21 22 22 24 25 25 22 27 23 16 16 18 20 16 21 15 13 16 9 13 12 13 13 9 16 10 18 39 37 41 34 34
28 21 18 18 7 14 12 12 16 22 21 24 19 13 21 22 21 21 24 24 25 27 21 18 21 21 22 17 16 15 17 18 18 13 6 7 9 11 9 9 6 10 14 27 34
29 22 21 14 18 12 11 19 21 27 29 17 16 15 20 23 26 25 25 24 25 25 26 18 15 21 17 16 16 16 17 13 12 9 10 8 9 10 15 10 11 10 7 9 27
18 9 8 19 15 16 13 21 23 36 27 19 14 16 14 18 25 21 21 22 27 27 26 25 18 19 21 15 21 15 11 9 12 10 9 9 4 13 11 8 7 8 10 5 12
7 6 14 15 12 15 15 23 33 26 32 15 14 19 18 19 22 26 26 25 34 27 27 25 8 13 27 20 23 21 16 10 9 9 8 9 5 13 11 10 11 8 3 6 5
9 18 16 17 13 13 19 24 28 24 22 19 16 21 20 21 18 24 26 25 31 27 26 18 13 10 14 19 20 18 16 20 17 13 13 11 5 7 7 7 7 6 4 10 14
7 5 18 23 24 20 19 23 23 27 25 21 13 17 22 21 19 19 23 22 33 28 17 18 19 13 14 16 17 22 22 22 20 12 14 12 6 11 11 9 10 7 7 8 16
6 8 11 7 15 18 21 20 20 21 22 22 15 22 13 14 15 17 18 23 24 15 16 14 11 16 18 20 19 17 23 21 20 19 17 11 8 3 3 8 2 1 4 8 8
11 9 20 21 25 15 13 21 20 18 18 21 18 20 17 18 9 10 16 12 22 16 12 11 8 11 18 18 18 21 23 23 24 23 23 20 16 21 19 16 9 1 6 10 8
12 14 11 12 16 11 12 11 18 22 17 11 6 8 13 16 15 7 12 14 6 11 15 14 13 13 16 17 20 20 21 21 18 17 15 13 5 12 11 4 2 2 6 9 11
Wind_Direction
344 342 342 343 339 337 336 336 335 332 323 312 305 297 291 288 287 280 266 248 256 254 257 260 263 273 275 259 254 210 273 88 53 97 131 124 119 92 107 129 146 130 141 145 145
340 339 338 339 338 334 332 333 333 330 324 311 301 293 285 283 282 271 249 224 236 244 237 245 255 254 253 250 245 200 141 130 148 158 82 357 101 116 136 130 128 118 133 145 149
337 336 335 335 335 333 330 330 332 330 327 315 299 284 277 279 290 266 248 221 220 226 223 245 264 270 253 256 241 334 87 83 104 87 131 174 77 94 4 138 130 136 144 150 152
333 333 332 332 332 330 328 328 330 329 330 330 316 286 267 249 262 24 190 201 210 214 221 243 254 265 250 251 252 104 66 75 87 61 17 74 79 106 148 230 137 145 148 151 155
329 329 329 328 328 329 327 326 328 327 327 321 322 294 253 239 249 273 241 199 202 203 211 225 230 245 250 200 198 117 88 89 106 149 86 71 67 119 176 161 137 142 149 153 157
326 326 326 325 326 326 325 323 326 324 323 312 320 284 228 249 229 231 237 204 196 197 208 222 227 238 276 131 241 103 137 166 112 91 117 117 107 112 113 130 134 146 151 156 162
323 322 322 323 323 323 323 320 322 321 319 303 319 266 241 232 210 215 195 196 187 198 209 218 234 270 249 183 130 131 135 130 146 114 57 111 97 113 131 140 146 148 153 157 162
320 320 319 320 321 321 319 317 316 316 317 288 311 228 258 257 199 217 198 199 200 204 214 216 243 257 248 164 192 169 170 177 136 110 79 67 117 134 149 152 150 161 157 156 156
319 317 317 318 318 318 316 315 311 310 308 266 257 254 258 191 214 210 197 192 196 202 215 242 219 247 243 207 192 208 197 154 125 125 154 154 162 159 164 167 169 170 157 158 160
319 317 316 317 317 316 313 314 308 305 286 262 231 267 240 223 204 199 191 189 195 196 213 216 211 233 240 184 210 202 216 163 160 180 158 169 163 168 175 166 171 177 169 169 170
318 316 315 315 315 313 311 321 306 256 233 239 228 231 233 203 182 187 184 188 193 203 206 205 214 218 216 203 227 212 221 157 244 155 163 174 172 176 185 164 176 174 179 179 177
316 315 314 313 312 306 302 280 280 324 302 272 256 245 265 184 171 186 183 190 196 203 205 195 216 221 221 213 233 237 205 203 203 154 179 154 183 190 189 174 175 179 184 186 175
314 314 313 313 312 310 302 268 295 299 285 281 252 230 224 192 194 190 191 199 196 207 202 207 212 232 232 215 229 251 238 222 199 150 178 199 155 137 259 195 177 185 187 188 180
312 312 314 316 308 256 271 311 312 302 281 262 222 224 206 208 216 193 193 203 197 210 206 226 212 221 234 231 206 232 216 261 229 176 212 179 230 168 218 188 195 192 186 191 185
308 309 306 316 298 280 280 318 310 295 274 183 193 187 193 199 203 194 192 206 211 211 219 214 232 211 224 234 231 240 227 231 238 240 235 231 231 158 185 188 198 202 194 197 187
305 304 299 303 289 303 315 301 297 240 244 187 152 186 188 194 215 190 190 210 227 216 221 237 219 224 210 227 221 222 255 205 224 253 252 228 216 159 180 211 215 246 214 198 193
302 297 287 280 267 295 266 301 230 238 242 273 160 187 197 188 206 196 188 204 217 218 218 221 232 201 209 204 214 213 206 208 226 231 242 238 223 237 176 216 206 177 223 200 196
302 297 282 271 272 268 272 259 238 237 243 266 174 184 209 190 206 193 190 202 217 221 214 210 222 198 202 215 201 193 221 214 207 232 230 208 184 222 194 176 202 207 205 197 194
310 305 276 269 234 211 225 231 224 242 250 241 258 202 202 201 206 189 195 206 208 223 227 198 228 188 208 224 189 185 234 241 258 265 255 181 198 222 160 159 159 181 216 197 191
321 315 279 221 223 190 219 241 249 244 259 298 280 234 203 201 208 190 195 206 216 216 236 196 223 187 209 206 224 219 207 234 249 261 281 237 234 215 157 158 173 182 214 228 200
322 289 294 173 180 204 222 230 240 256 272 278 271 283 243 205 208 201 202 211 214 213 228 237 207 191 193 192 216 208 230 217 247 229 253 256 82 100 136 155 147 167 180 201 234
293 256 192 181 204 226 228 235 259 250 239 246 254 276 292 287 223 220 202 203 202 217 219 236 244 250 195 195 206 226 197 214 245 254 281 303 313 132 141 152 170 127 182 164 215
292 270 246 212 236 232 230 241 257 252 255 262 226 250 266 270 276 230 225 202 205 212 217 220 237 245 236 199 197 222 217 214 224 241 259 255 186 121 152 143 127 129 74 178 179
291 266 223 218 241 254 243 235 239 245 246 271 270 268 247 259 271 268 212 230 211 205 216 217 215 230 244 231 196 201 216 234 252 235 238 233 202 179 199 169 146 191 198 194 196
250 271 352 272 222 230 255 264 262 234 228 256 266 276 261 258 256 260 252 215 220 191 191 217 226 238 233 259 267 239 210 219 238 263 270 249 230 212 180 200 75 66 281 265 244
311 344 330 300 292 283 242 247 266 254 229 223 229 264 249 257 301 345 347 286 215 159 174 193 212 234 253 253 243 252 264 208 214 225 243 253 245 197 188 157 170 286 302 290 253
337 317 304 291 286 277 253 255 253 277 228 233 194 291 283 346 347 323 314 316 346 177 191 192 205 223 240 242 255 257 247 251 238 227 235 259 283 107 136 133 36 354 298 291 294